STARLINK-2322, 47791

Orbit data source: Space-Track

STARLINK-2322, 47791 is a payload satellite owned by SpaceX/Seattle (US) in LEO that was launched on Thu, 11 Mar 2021 UTC via an FALCON 9 launch vehicle from the Air Force Eastern Test Range (AFETR). Payload-class satellites include a variety of spacecraft equipped with specific instruments for various scientific and technological missions. These include communications satellites like Starlink; space stations such as the ISS; scientific satellites like the Hubble; Earth observation satellites from companies like Planet Labs, Umbra, and HawkEye 360; GPS; miniature CubeSats for education and research; and military/defense satellites.

Loading next visibility...
Identifier
47791, 2021-018E
Orbit
LEO
Country
Flag of USUS
Related business
Manufacturer
SpaceX/Seattle
Mission
Operational Commercial Communications
Bus & Motor
STARLINK, Unknown motor
Mass
260 kg wet, ~248 kg dry
Launch date (UTC)
2021-03-11 (5 years ago)
Launch vehicle
FALCON 9
Launch site
Air Force Eastern Test Range (AFETR)
Object type
Payload
Rocket body
Debris
Shape & HBR
Box + 1 Pan, 10.1 m
Radar Cross Section
13.562 m², Large (>1 m²)

Expand to show TLE details & history
Last TLE update: 3 days ago

TLE from 3 days ago
0 STARLINK-2322
1 47791U 21018E   26170.88430137  .00001662  00000-0  65309-4 0  9992
2 47791  53.1600 127.4940 0001144  94.2279 265.8853 15.31706103292394
Epoch: 2026-06-19T21:13Z
TLE epoch observation values (Epoch: 2026-06-19T21:13:23.638Z)
Latitude
-0.00003°
Longitude
-98.96139°
Altitude
471.678 km
Speed
7.631 km/s
True Right ascension
08h 29m 58s
True Declination
0° 00' 00"
Sunlit
Object was in daylight at epoch
Visualization orbit readout
Latitude
Unknown
Longitude
Unknown
Altitude
Unknown
Speed
Unknown
Apparent Right ascension
Unknown
Apparent Declination
Unknown
Sunlit
N/A
Visualization observer readout
Local Sidereal Time
21:56:16
Azimuth
Unknown
Elevation
Unknown
Doppler factor
Unknown
Orbital elements
Apogee altitude
471.762 km
Perigee altitude
470.195 km
Semi-major axis
6,849.115 km
Eccentricity
0.00011
Inclination
53.16°
RAAN
127.494°
Arg. of periapsis
94.2279°
True anomaly
265.87222°
Mean anomaly
265.8853°
Eccentric anomaly
265.87876°
Mean motion
3.82905 °/min
Orbital period
94.02 mins
BSTAR
0.000065309
Loading maneuver chart data...
Computing Atmospheric mass density...
Loading historical data...
Loading historical data...
Loading historical data...
Loading historical data...
Loading historical data...
Loading historical data...
Loading historical data...

Documentation

Showing up to 5 results
|